Simultaneous Nadir Overpasses (SNOs) Predictions

Prediction of SNOs between GOES-14 and NOAA-20 Satellite Orbit:

Table of predicted SNOs for the next 14.0 days since TLE Epoch: 8/31/2018
Index Date Time (GOES-14) GOES-14 Lat,Lon NOAA-20 Lat,Lon Distance(km) Time Diff (sec)
1 08/31/2018 20:23:00 -0.38,-104.44 -0.33,-104.28 18.57 80
2 09/03/2018 08:26:03 0.38,-104.27 0.54,-105.01 84.41 80
3 09/04/2018 08:04:38 0.37,-104.24 -0.47,-100.48 429.40 80
4 09/05/2018 20:26:36 -0.37,-104.35 -0.68,-105.79 163.37 80
5 09/06/2018 20:10:31 -0.37,-104.34 0.33,-101.26 351.83 80
6 09/08/2018 08:32:18 0.36,-104.20 0.89,-106.52 264.45 80
7 09/09/2018 08:10:54 0.36,-104.18 -0.12,-101.99 249.56 80
8 09/10/2018 20:32:51 -0.36,-104.27 -1.02,-107.30 345.29 80
9 09/11/2018 20:16:47 -0.36,-104.27 -0.01,-102.77 170.49 80
10 09/13/2018 08:38:34 0.35,-104.15 1.23,-108.03 442.65 80
11 09/14/2018 08:17:10 0.35,-104.13 0.22,-103.50 71.64 80




NCC Satellite Simultaneous Nadir Overpasses (SNOs) Prediction Service
